Flag for Germany Weather past 2 weeks in Wunstorf, Lower Saxony, Germany

Now
41 °F

Passing clouds.


Feels Like: 35 °F
Forecast: 37 / 44 °F
Wind: 9 mph from Southwest

Location: Wunstorf Airport

Current Time: Mar 31, 2015 at 2:39:42 AM

Latest Report: Mar 31, 2015 at 1:20 AM


Visibility: N/A

Pressure: 29.59 "Hg

Humidity: 66%

Dew point: 30 °F

Location of WunstorfLocation

Historic Weather in Wunstorf — Graph

°F

Wunstorf temperature yesterday

Maximum temperature yesterday: 48 °F (at 2:20 PM)
Minimum temperature yesterday: 41 °F (at 4:20 AM)
Average temperature yesterday: 43 °F

Past Weeks' High & Low Weather Summary

 TemperatureHumidityPressure
High61 °F (Mar 25, 4:20 PM)100% (Mar 21, 1:20 AM)30.39 "Hg (Mar 21, 1:20 AM)
Low27 °F (Mar 23, 5:20 AM)33% (Mar 19, 5:20 PM)29.09 "Hg (Mar 29, 8:20 PM)
Average43 °F75%29.99 "Hg
* Reported Mar 16 12:20 AM — Mar 31 1:20 AM, Wunstorf, Weather by CustomWeather, © 2015

Note: Actual official high and low records may vary slightly from our data, if they occured in-between our weather recording intervals... More about our weather records

Advertising

Wunstorf weather history for previous 24 hours

 ConditionsComfort  
Time TempWeatherWind HumidityBarometerVisibility
1:20 AM
Tue, Mar 31
41 °FPassing clouds.9 mph66%29.59 "HgN/A
12:20 AM41 °FPassing clouds.10 mph66%29.65 "HgN/A
11:20 PM
Mon, Mar 30
41 °FPassing clouds.10 mph66%29.68 "HgN/A
10:20 PM41 °FPassing clouds.13 mph66%29.71 "HgN/A
9:20 PM43 °FPassing clouds.17 mph61%29.71 "HgN/A
8:20 PM43 °FScattered clouds.16 mph61%29.71 "HgN/A
7:20 PM45 °FScattered clouds.26 mph53%29.68 "HgN/A
6:20 PM45 °FPassing clouds.18 mph66%29.65 "HgN/A
5:20 PM41 °FScattered showers. Partly sunny.26 mph76%29.65 "HgN/A
4:20 PM45 °FSprinkles. Scattered clouds.29 mph66%29.59 "Hg6 mi
3:20 PM45 °FScattered showers. Partly sunny.22 mph66%29.56 "Hg6 mi
2:20 PM48 °FPartly sunny.30 mph50%29.50 "HgN/A
1:20 PM45 °FScattered showers. Partly sunny.30 mph66%29.47 "HgN/A
12:20 PM46 °FPartly sunny.31 mph57%29.45 "HgN/A
12:01 PM46 °FPartly sunny.35 mph62%29.45 "HgN/A
11:20 AM45 °FSprinkles. Partly sunny.30 mph66%29.42 "HgN/A
10:20 AM41 °FScattered clouds.23 mph81%29.39 "HgN/A
9:20 AM43 °FPartly sunny.25 mph71%29.36 "HgN/A
8:20 AM43 °FScattered clouds.20 mph71%29.33 "HgN/A
7:20 AM41 °FSprinkles. Passing clouds.24 mph76%29.30 "HgN/A
6:20 AM41 °FPartly cloudy.30 mph81%29.30 "HgN/A
5:20 AM43 °FRain showers. Passing clouds.21 mph87%29.27 "Hg3 mi
4:20 AM41 °FSprinkles. Partly cloudy.15 mph93%29.27 "Hg3 mi
3:20 AM43 °FSprinkles. Partly cloudy.24 mph81%29.27 "Hg4 mi
2:20 AM45 °FPartly cloudy.25 mph76%29.24 "HgN/A
Weather by CustomWeather, © 2015

See weather overviewHow to use our weather pages